Location: Fauquembergues
(50.6005°N, 2.0987°E)
Time: 20:07:32
(UTC+00:00)

Meteor 1-19 Rocket - Pass Details

Date: 26 October 2020
Orbit: 809 x 926 km, 81.2° (Epoch: 03 December)

Event Time Altitude Azimuth Distance (km) Brightness Sun altitude
Exits shadow 02:40:52 11° 348° (NNW) 2,539 6.8 -36.6°
Drops below altitude 10° 02:41:15 10° 350° (N) 2,641 6.9 -36.5°
Sets 02:44:26 0° 6° (N) 3,586 7.9 -36.1°
